Location: Brummen
(52.0898°N, 6.1565°E)
Time: 08:41:07
(UTC+00:00)

Cosmos 2360 - Pass Details

Date: 17 July 2025
Orbit: 846 x 856 km, 70.7° (Epoch: 17 May)

Event Time Altitude Azimuth Distance (km) Brightness Sun altitude
Exits shadow 23:38:44 16° 223° (SW) 2,055 5.8 -16.9°
Maximum altitude 23:43:15 68° 305° (NW) 916 4.5 -16.9°
Drops below altitude 10° 23:48:56 10° 28° (NNE) 2,482 7.6 -16.9°
Sets 23:51:25 0° 31° (NNE) 3,420 8.5 -16.9°
